Location: Sternwarte ZA, Rosenfeld-Brittheim
(48.2889°N, 8.6789°E)
Time: 23:39:58
(UTC+01:00)

ISS - Pass Details

Date: 11 November 2018
Orbit: 402 x 409 km, 51.6° (Epoch: 14 November)

Event Time Altitude Azimuth Distance (km) Brightness Sun altitude
Exits shadow 05:08:45 47° 96° (E) 547 -2.8 -22.9°
Drops below altitude 10° 05:11:13 10° 107° (ESE) 1,462 0.0 -22.5°
Sets 05:13:18 0° 109° (ESE) 2,321 1.3 -22.1°
